| time (UTC) | temp F | wind direction | speed knots | gust knots | rain 1hr in | rain 24hr in | rain mn in | humidity % | barometer mb |
| 20260506013500 | 77 | 112 | 0.0 | 1.7 | 0.00 | 0.06 | 0.01 | 81 | 1015.4 |
| 20260506013023 | 80 | 99 | 0.0 | 1.7 | 0.00 | 0.06 | 0.01 | 78 | 1015.5 |
| 20260506012501 | 79 | 84 | 0.0 | 1.7 | 0.00 | 0.06 | 0.01 | 80 | 1015.8 |
| 20260506012022 | 78 | 78 | 0.0 | 1.7 | 0.00 | 0.06 | 0.01 | 82 | 1015.6 |
| 20260506011501 | 80 | 67 | 0.0 | 1.7 | 0.00 | 0.06 | 0.01 | 80 | 1015.5 |
| 20260506011021 | 80 | 0 | 0.0 | 0.0 | 0.00 | 0.06 | 0.01 | 78 | 1015.7 |
| 20260506010521 | 78 | 0 | 0.0 | 0.0 | 0.00 | 0.06 | 0.01 | 82 | 1015.8 |
| 20260506010001 | 77 | 134 | 0.0 | 1.7 | 0.00 | 0.06 | 0.01 | 82 | 1015.9 |
| 20260506005500 | 78 | 144 | 0.0 | 1.7 | 0.00 | 0.06 | 0.01 | 81 | 1016.1 |
| 20260506005000 | 79 | 130 | 0.0 | 1.7 | 0.00 | 0.06 | 0.01 | 80 | 1016.0 |
| 20260506004501 | 78 | 90 | 0.0 | 1.7 | 0.00 | 0.06 | 0.01 | 82 | 1016.1 |
| 20260506004000 | 78 | 157 | 0.0 | 1.7 | 0.00 | 0.06 | 0.01 | 82 | 1016.1 |
| 20260506003522 | 77 | 157 | 0.0 | 1.7 | 0.00 | 0.06 | 0.01 | 81 | 1016.4 |
| 20260506003001 | 77 | 0 | 0.0 | 0.0 | 0.00 | 0.06 | 0.01 | 82 | 1016.3 |
| 20260506002500 | 78 | 0 | 0.0 | 0.0 | 0.00 | 0.06 | 0.01 | 83 | 1016.4 |
| 20260506002000 | 78 | 78 | 0.0 | 1.7 | 0.00 | 0.06 | 0.01 | 82 | 1016.3 |
| 20260506001522 | 77 | 78 | 0.0 | 1.7 | 0.00 | 0.06 | 0.01 | 82 | 1016.3 |
| 20260506001000 | 77 | 135 | 0.0 | 1.7 | 0.00 | 0.06 | 0.01 | 82 | 1016.4 |
| 20260506000501 | 77 | 135 | 0.0 | 1.7 | 0.00 | 0.06 | 0.01 | 82 | 1016.4 |
| 20260506000000 | 77 | 0 | 0.0 | 0.0 | 0.00 | 0.06 | 0.01 | 82 | 1016.4 |
| 20260505235501 | 77 | 0 | 0.0 | 0.0 | 0.00 | 0.06 | 0.01 | 82 | 1016.2 |
| 20260505235001 | 78 | 0 | 0.0 | 0.0 | 0.00 | 0.06 | 0.01 | 81 | 1016.3 |
| 20260505234501 | 78 | 0 | 0.0 | 0.0 | 0.00 | 0.06 | 0.01 | 81 | 1016.3 |
| 20260505234022 | 77 | 0 | 0.0 | 0.0 | 0.00 | 0.06 | 0.01 | 82 | 1016.5 |
| 20260505233500 | 77 | 0 | 0.0 | 0.0 | 0.00 | 0.06 | 0.01 | 83 | 1016.5 |
| 20260505233023 | 76 | 0 | 0.0 | 0.0 | 0.00 | 0.06 | 0.01 | 82 | 1016.5 |
| 20260505232501 | 77 | 0 | 0.0 | 0.0 | 0.00 | 0.06 | 0.01 | 83 | 1016.3 |
| 20260505232001 | 77 | 0 | 0.0 | 0.0 | 0.00 | 0.06 | 0.01 | 84 | 1016.3 |
| 20260505231522 | 75 | 0 | 0.0 | 0.0 | 0.00 | 0.06 | 0.01 | 85 | 1016.3 |
| 20260505231001 | 76 | 0 | 0.0 | 0.0 | 0.00 | 0.06 | 0.01 | 85 | 1016.4 |
| 20260505230522 | 76 | 0 | 0.0 | 0.0 | 0.00 | 0.06 | 0.01 | 85 | 1016.2 |
| 20260505230001 | 75 | 0 | 0.0 | 0.0 | 0.00 | 0.06 | 0.01 | 84 | 1016.1 |
| 20260505225501 | 74 | 0 | 0.0 | 0.0 | 0.00 | 0.06 | 0.01 | 86 | 1016.4 |
| 20260505225001 | 74 | 0 | 0.0 | 0.0 | 0.00 | 0.06 | 0.01 | 87 | 1016.1 |
| 20260505224501 | 75 | 0 | 0.0 | 0.0 | 0.00 | 0.06 | 0.01 | 86 | 1016.0 |
| 20260505224001 | 74 | 0 | 0.0 | 0.0 | 0.00 | 0.06 | 0.01 | 85 | 1016.1 |
| 20260505223501 | 75 | 0 | 0.0 | 0.0 | 0.00 | 0.06 | 0.01 | 86 | 1016.1 |
| 20260505223001 | 74 | 0 | 0.0 | 0.0 | 0.00 | 0.06 | 0.01 | 87 | 1015.8 |
| 20260505222501 | 74 | 0 | 0.0 | 0.0 | 0.00 | 0.06 | 0.01 | 86 | 1016.0 |
| 20260505222001 | 74 | 0 | 0.0 | 0.0 | 0.00 | 0.06 | 0.01 | 88 | 1016.0 |
| 20260505221501 | 74 | 0 | 0.0 | 0.0 | 0.00 | 0.06 | 0.01 | 89 | 1016.0 |
| 20260505221001 | 73 | 0 | 0.0 | 0.0 | 0.00 | 0.06 | 0.01 | 91 | 1015.9 |
| 20260505220501 | 72 | 0 | 0.0 | 0.0 | 0.00 | 0.06 | 0.01 | 91 | 1016.1 |
| 20260505220001 | 72 | 0 | 0.0 | 0.0 | 0.00 | 0.06 | 0.01 | 93 | 1016.0 |
| 20260505215501 | 71 | 0 | 0.0 | 0.0 | 0.00 | 0.06 | 0.01 | 92 | 1015.9 |
| 20260505215001 | 71 | 0 | 0.0 | 0.0 | 0.00 | 0.06 | 0.01 | 94 | 1016.0 |
| 20260505214501 | 71 | 0 | 0.0 | 0.0 | 0.00 | 0.06 | 0.01 | 95 | 1016.0 |
| 20260505214002 | 70 | 0 | 0.0 | 0.0 | 0.00 | 0.06 | 0.01 | 95 | 1016.0 |
| 20260505213502 | 70 | 0 | 0.0 | 0.0 | 0.00 | 0.06 | 0.01 | 95 | 1015.9 |
| 20260505213002 | 70 | 0 | 0.0 | 0.0 | 0.00 | 0.06 | 0.01 | 95 | 1015.9 |
| 20260505212501 | 69 | 0 | 0.0 | 0.0 | 0.00 | 0.06 | 0.01 | 95 | 1016.0 |
| 20260505212001 | 69 | 0 | 0.0 | 0.0 | 0.00 | 0.06 | 0.01 | 96 | 1015.9 |
| 20260505211501 | 69 | 0 | 0.0 | 0.0 | 0.00 | 0.06 | 0.01 | 97 | 1015.9 |
| 20260505211022 | 69 | 0 | 0.0 | 0.0 | 0.00 | 0.06 | 0.01 | 97 | 1015.6 |
| 20260505210501 | 69 | 0 | 0.0 | 0.0 | 0.00 | 0.06 | 0.01 | 97 | 1015.8 |
| 20260505210001 | 69 | 0 | 0.0 | 0.0 | 0.00 | 0.06 | 0.01 | 97 | 1015.5 |
| 20260505205522 | 69 | 0 | 0.0 | 0.0 | 0.00 | 0.06 | 0.01 | 97 | 1015.5 |
| 20260505205001 | 69 | 0 | 0.0 | 0.0 | 0.00 | 0.06 | 0.01 | 97 | 1015.7 |
| 20260505204501 | 69 | 0 | 0.0 | 0.0 | 0.00 | 0.06 | 0.01 | 96 | 1015.4 |
| 20260505204001 | 69 | 0 | 0.0 | 0.0 | 0.00 | 0.06 | 0.01 | 96 | 1015.4 |
| 20260505203501 | 69 | 0 | 0.0 | 0.0 | 0.00 | 0.06 | 0.01 | 96 | 1015.4 |
| 20260505203002 | 69 | 0 | 0.0 | 0.0 | 0.00 | 0.06 | 0.01 | 96 | 1015.2 |
| 20260505202522 | 69 | 0 | 0.0 | 0.0 | 0.00 | 0.06 | 0.01 | 96 | 1015.3 |
| 20260505202022 | 69 | 0 | 0.0 | 0.0 | 0.00 | 0.06 | 0.01 | 97 | 1015.3 |
| 20260505201501 | 69 | 0 | 0.0 | 0.0 | 0.00 | 0.06 | 0.01 | 97 | 1015.2 |
| 20260505201001 | 68 | 0 | 0.0 | 0.0 | 0.00 | 0.06 | 0.01 | 98 | 1015.3 |
| 20260505200522 | 68 | 0 | 0.0 | 0.0 | 0.00 | 0.06 | 0.01 | 98 | 1015.2 |
| 20260505200001 | 68 | 0 | 0.0 | 0.0 | 0.00 | 0.06 | 0.01 | 98 | 1015.0 |
| 20260505195501 | 68 | 0 | 0.0 | 0.0 | 0.00 | 0.06 | 0.01 | 98 | 1015.2 |
| 20260505195022 | 68 | 0 | 0.0 | 0.0 | 0.00 | 0.06 | 0.01 | 98 | 1015.0 |
| 20260505194501 | 68 | 0 | 0.0 | 0.0 | 0.00 | 0.06 | 0.01 | 99 | 1015.1 |
| 20260505194023 | 68 | 0 | 0.0 | 0.0 | 0.00 | 0.06 | 0.01 | 99 | 1015.1 |
| 20260505193502 | 67 | 0 | 0.0 | 0.0 | 0.00 | 0.06 | 0.01 | 99 | 1015.0 |
| 20260505193002 | 67 | 0 | 0.0 | 0.0 | 0.00 | 0.06 | 0.01 | 99 | 1014.8 |
| 20260505192522 | 68 | 0 | 0.0 | 0.0 | 0.00 | 0.06 | 0.01 | 99 | 1014.7 |
| 20260505192001 | 67 | 0 | 0.0 | 0.0 | 0.00 | 0.06 | 0.01 | 99 | 1014.7 |
| 20260505191501 | 67 | 0 | 0.0 | 0.0 | 0.00 | 0.06 | 0.01 | 99 | 1014.8 |
| 20260505191001 | 67 | 0 | 0.0 | 0.0 | 0.00 | 0.06 | 0.01 | 99 | 1014.6 |
| 20260505190501 | 67 | 0 | 0.0 | 0.0 | 0.00 | 0.06 | 0.01 | 99 | 1014.5 |
| 20260505190001 | 67 | 0 | 0.0 | 0.0 | 0.00 | 0.06 | 0.01 | 99 | 1014.5 |
| 20260505185501 | 67 | 0 | 0.0 | 0.0 | 0.00 | 0.06 | 0.01 | 99 | 1014.4 |
| 20260505185001 | 67 | 0 | 0.0 | 0.0 | 0.00 | 0.06 | 0.01 | 99 | 1014.3 |
| 20260505184501 | 67 | 0 | 0.0 | 0.0 | 0.00 | 0.06 | 0.01 | 99 | 1014.5 |
| 20260505184001 | 67 | 0 | 0.0 | 0.0 | 0.00 | 0.06 | 0.01 | 99 | 1014.4 |
| 20260505183523 | 68 | 0 | 0.0 | 0.0 | 0.00 | 0.06 | 0.01 | 99 | 1014.6 |
| 20260505183002 | 68 | 0 | 0.0 | 0.0 | 0.00 | 0.06 | 0.01 | 99 | 1014.6 |
| 20260505182523 | 68 | 0 | 0.0 | 0.0 | 0.00 | 0.06 | 0.01 | 99 | 1014.5 |
| 20260505182022 | 68 | 0 | 0.0 | 0.0 | 0.00 | 0.06 | 0.01 | 99 | 1014.6 |
| 20260505181501 | 68 | 0 | 0.0 | 0.0 | 0.00 | 0.06 | 0.01 | 99 | 1014.3 |
| 20260505181001 | 68 | 0 | 0.0 | 0.0 | 0.00 | 0.06 | 0.01 | 99 | 1014.5 |
| 20260505180501 | 68 | 0 | 0.0 | 0.0 | 0.00 | 0.06 | 0.01 | 99 | 1014.2 |
| 20260505180022 | 68 | 0 | 0.0 | 0.0 | 0.00 | 0.06 | 0.01 | 99 | 1014.4 |
| 20260505175501 | 68 | 0 | 0.0 | 0.0 | 0.00 | 0.06 | 0.01 | 99 | 1014.3 |
| 20260505175001 | 68 | 0 | 0.0 | 0.0 | 0.00 | 0.06 | 0.01 | 99 | 1014.3 |
| 20260505174501 | 68 | 0 | 0.0 | 0.0 | 0.00 | 0.06 | 0.01 | 99 | 1014.3 |
| 20260505174022 | 68 | 0 | 0.0 | 0.0 | 0.00 | 0.06 | 0.01 | 99 | 1014.4 |
| 20260505173501 | 68 | 0 | 0.0 | 0.0 | 0.00 | 0.06 | 0.01 | 99 | 1014.7 |
| 20260505173002 | 68 | 0 | 0.0 | 0.0 | 0.00 | 0.06 | 0.01 | 99 | 1014.7 |
| 20260505172522 | 68 | 0 | 0.0 | 0.0 | 0.00 | 0.06 | 0.01 | 99 | 1014.7 |
| 20260505172001 | 68 | 0 | 0.0 | 0.0 | 0.00 | 0.06 | 0.01 | 99 | 1014.7 |
| 20260505171501 | 68 | 0 | 0.0 | 0.0 | 0.00 | 0.06 | 0.01 | 99 | 1014.7 |
| 20260505171001 | 68 | 0 | 0.0 | 0.0 | 0.00 | 0.06 | 0.01 | 99 | 1014.7 |
| 20260505170502 | 67 | 0 | 0.0 | 0.0 | 0.01 | 0.06 | 0.01 | 99 | 1014.8 |
| 20260505170002 | 67 | 0 | 0.0 | 0.0 | 0.01 | 0.06 | 0.01 | 99 | 1014.7 |
| 20260505165502 | 67 | 0 | 0.0 | 0.0 | 0.01 | 0.07 | 0.01 | 99 | 1014.8 |
| 20260505165002 | 67 | 0 | 0.0 | 0.0 | 0.01 | 0.07 | 0.01 | 99 | 1014.8 |
| 20260505164501 | 67 | 0 | 0.0 | 0.0 | 0.01 | 0.07 | 0.01 | 99 | 1014.7 |
| 20260505164023 | 67 | 0 | 0.0 | 0.0 | 0.01 | 0.07 | 0.01 | 99 | 1014.7 |
| 20260505163502 | 67 | 0 | 0.0 | 0.0 | 0.01 | 0.07 | 0.01 | 99 | 1014.8 |
| 20260505163002 | 66 | 0 | 0.0 | 0.0 | 0.01 | 0.07 | 0.01 | 99 | 1014.8 |
| 20260505162523 | 66 | 0 | 0.0 | 0.0 | 0.01 | 0.07 | 0.01 | 99 | 1014.7 |
| 20260505162023 | 67 | 0 | 0.0 | 0.0 | 0.01 | 0.07 | 0.01 | 99 | 1014.8 |
| 20260505161502 | 69 | 0 | 0.0 | 0.0 | 0.01 | 0.07 | 0.01 | 99 | 1015.0 |
| 20260505161001 | 69 | 0 | 0.0 | 0.0 | 0.01 | 0.07 | 0.01 | 99 | 1014.9 |
| 20260505160501 | 69 | 0 | 0.0 | 0.0 | 0.00 | 0.06 | 0.00 | 99 | 1015.0 |
| 20260505153003 | 69 | 0 | 0.0 | 0.0 | 0.00 | 0.06 | 0.00 | 99 | 1015.2 |
| 20260505152502 | 69 | 0 | 0.0 | 0.0 | 0.00 | 0.06 | 0.00 | 99 | 1015.5 |
| 20260505152002 | 69 | 0 | 0.0 | 0.0 | 0.00 | 0.06 | 0.00 | 99 | 1015.4 |
| 20260505151502 | 69 | 0 | 0.0 | 0.0 | 0.00 | 0.06 | 0.00 | 99 | 1015.6 |
| 20260505151002 | 69 | 0 | 0.0 | 0.0 | 0.00 | 0.06 | 0.00 | 99 | 1015.5 |
| 20260505150502 | 69 | 0 | 0.0 | 0.0 | 0.00 | 0.06 | 0.00 | 99 | 1015.6 |
| 20260505140523 | 69 | 0 | 0.0 | 0.0 | 0.00 | 0.06 | 0.00 | 98 | 1015.7 |
| 20260505125002 | 70 | 0 | 0.0 | 0.0 | 0.00 | 0.06 | 0.06 | 97 | 1016.6 |
| 20260505124503 | 70 | 0 | 0.0 | 0.0 | 0.00 | 0.06 | 0.06 | 97 | 1016.7 |
| 20260505124002 | 71 | 0 | 0.0 | 0.0 | 0.00 | 0.06 | 0.06 | 97 | 1016.5 |
| 20260505123502 | 70 | 0 | 0.0 | 0.0 | 0.00 | 0.06 | 0.06 | 97 | 1016.5 |
| 20260505123024 | 70 | 0 | 0.0 | 0.0 | 0.00 | 0.06 | 0.06 | 96 | 1016.7 |
| 20260505122523 | 70 | 0 | 0.0 | 0.0 | 0.00 | 0.06 | 0.06 | 96 | 1016.6 |
| 20260505122002 | 71 | 0 | 0.0 | 0.0 | 0.00 | 0.06 | 0.06 | 96 | 1016.4 |
| 20260505121502 | 71 | 0 | 0.0 | 0.0 | 0.00 | 0.06 | 0.06 | 95 | 1016.5 |
| 20260505121023 | 71 | 0 | 0.0 | 0.0 | 0.00 | 0.06 | 0.06 | 96 | 1016.6 |
| 20260505120502 | 71 | 0 | 0.0 | 0.0 | 0.00 | 0.06 | 0.06 | 96 | 1016.6 |
| 20260505120023 | 71 | 0 | 0.0 | 0.0 | 0.00 | 0.06 | 0.06 | 95 | 1016.4 |
| 20260505115502 | 71 | 0 | 0.0 | 0.0 | 0.00 | 0.06 | 0.06 | 95 | 1016.6 |
| 20260505115002 | 71 | 0 | 0.0 | 0.0 | 0.00 | 0.06 | 0.06 | 96 | 1016.7 |
| 20260505114502 | 71 | 0 | 0.0 | 0.0 | 0.00 | 0.06 | 0.06 | 95 | 1016.7 |
| 20260505114023 | 72 | 0 | 0.0 | 0.0 | 0.00 | 0.06 | 0.06 | 94 | 1016.6 |
| 20260505113502 | 72 | 0 | 0.0 | 0.0 | 0.00 | 0.06 | 0.06 | 94 | 1016.5 |
| 20260505113003 | 72 | 0 | 0.0 | 0.0 | 0.00 | 0.06 | 0.06 | 94 | 1016.5 |
| 20260505112502 | 72 | 0 | 0.0 | 0.0 | 0.00 | 0.06 | 0.06 | 94 | 1016.7 |
| 20260505112023 | 72 | 0 | 0.0 | 0.0 | 0.00 | 0.06 | 0.06 | 94 | 1016.7 |
| 20260505111523 | 72 | 0 | 0.0 | 0.0 | 0.00 | 0.06 | 0.06 | 94 | 1016.7 |
| 20260505111002 | 72 | 0 | 0.0 | 0.0 | 0.00 | 0.06 | 0.06 | 93 | 1016.8 |
| 20260505110502 | 72 | 0 | 0.0 | 0.0 | 0.00 | 0.06 | 0.06 | 93 | 1016.5 |
| 20260505102002 | 72 | 0 | 0.0 | 0.0 | 0.00 | 0.06 | 0.06 | 92 | 1016.8 |
| 20260505101503 | 72 | 0 | 0.0 | 0.0 | 0.00 | 0.06 | 0.06 | 91 | 1016.8 |
| 20260505101002 | 72 | 0 | 0.0 | 0.0 | 0.00 | 0.06 | 0.06 | 91 | 1016.5 |
| 20260505100502 | 72 | 0 | 0.0 | 0.0 | 0.00 | 0.06 | 0.06 | 91 | 1016.5 |
| 20260505100002 | 72 | 0 | 0.0 | 0.0 | 0.00 | 0.06 | 0.06 | 90 | 1016.3 |
| 20260505095502 | 72 | 0 | 0.0 | 0.0 | 0.00 | 0.06 | 0.06 | 90 | 1016.3 |
| 20260505095002 | 72 | 0 | 0.0 | 0.0 | 0.00 | 0.06 | 0.06 | 89 | 1016.4 |
| 20260505094502 | 73 | 0 | 0.0 | 0.0 | 0.00 | 0.06 | 0.06 | 89 | 1016.4 |
| 20260505094003 | 73 | 0 | 0.0 | 0.0 | 0.00 | 0.06 | 0.06 | 89 | 1016.3 |
| 20260505093503 | 73 | 0 | 0.0 | 0.0 | 0.00 | 0.06 | 0.06 | 88 | 1016.3 |
| 20260505093003 | 73 | 0 | 0.0 | 0.0 | 0.00 | 0.06 | 0.06 | 88 | 1016.2 |
| 20260505092502 | 73 | 0 | 0.0 | 0.0 | 0.00 | 0.06 | 0.06 | 88 | 1016.1 |
| 20260505092002 | 73 | 0 | 0.0 | 0.0 | 0.00 | 0.06 | 0.06 | 88 | 1016.1 |
| 20260505091502 | 73 | 0 | 0.0 | 0.0 | 0.00 | 0.08 | 0.06 | 88 | 1016.1 |
| 20260505091002 | 72 | 0 | 0.0 | 0.0 | 0.00 | 0.09 | 0.06 | 88 | 1016.1 |
| 20260505090502 | 72 | 0 | 0.0 | 0.0 | 0.00 | 0.12 | 0.06 | 88 | 1015.8 |
| 20260505090002 | 73 | 0 | 0.0 | 0.0 | 0.02 | 0.13 | 0.06 | 87 | 1015.8 |
| 20260505085523 | 73 | 0 | 0.0 | 0.0 | 0.04 | 0.13 | 0.06 | 87 | 1015.9 |
| 20260505085003 | 73 | 0 | 0.0 | 0.0 | 0.05 | 0.13 | 0.06 | 87 | 1015.5 |
| 20260505084502 | 73 | 0 | 0.0 | 0.0 | 0.05 | 0.14 | 0.06 | 86 | 1015.8 |
| 20260505084003 | 73 | 0 | 0.0 | 0.0 | 0.05 | 0.17 | 0.06 | 86 | 1015.7 |
| 20260505083503 | 74 | 0 | 0.0 | 0.0 | 0.05 | 0.17 | 0.06 | 85 | 1015.4 |
| 20260505083003 | 74 | 0 | 0.0 | 0.0 | 0.05 | 0.18 | 0.06 | 85 | 1015.6 |
| 20260505082503 | 74 | 0 | 0.0 | 0.0 | 0.05 | 0.18 | 0.06 | 84 | 1015.4 |
| 20260505082003 | 74 | 0 | 0.0 | 0.0 | 0.05 | 0.18 | 0.06 | 82 | 1015.4 |
| 20260505081502 | 74 | 0 | 0.0 | 0.0 | 0.05 | 0.18 | 0.06 | 81 | 1015.3 |
| 20260505081003 | 74 | 0 | 0.0 | 0.0 | 0.05 | 0.18 | 0.06 | 81 | 1015.4 |
| 20260505080523 | 74 | 0 | 0.0 | 0.0 | 0.05 | 0.18 | 0.06 | 80 | 1015.2 |
| 20260505080003 | 74 | 0 | 0.0 | 0.0 | 0.02 | 0.18 | 0.04 | 81 | 1015.2 |
| 20260505075503 | 74 | 0 | 0.0 | 0.0 | 0.01 | 0.18 | 0.02 | 80 | 1015.3 |
| 20260505075003 | 74 | 0 | 0.0 | 0.0 | 0.00 | 0.18 | 0.01 | 81 | 1014.9 |
| 20260505074524 | 75 | 0 | 0.0 | 0.0 | 0.00 | 0.18 | 0.01 | 83 | 1014.8 |
| 20260505074003 | 75 | 0 | 0.0 | 0.0 | 0.00 | 0.18 | 0.01 | 80 | 1014.8 |
| 20260505073502 | 76 | 0 | 0.0 | 0.0 | 0.00 | 0.18 | 0.01 | 77 | 1014.8 |
| 20260505073003 | 76 | 0 | 0.0 | 0.0 | 0.00 | 0.18 | 0.01 | 76 | 1014.6 |
| 20260505072503 | 76 | 0 | 0.0 | 0.0 | 0.00 | 0.18 | 0.01 | 76 | 1014.6 |
| 20260505072002 | 76 | 0 | 0.0 | 0.0 | 0.00 | 0.18 | 0.01 | 75 | 1014.5 |
| 20260505071503 | 76 | 0 | 0.0 | 0.0 | 0.00 | 0.18 | 0.01 | 75 | 1014.5 |
| 20260505071003 | 76 | 0 | 0.0 | 0.0 | 0.00 | 0.18 | 0.01 | 76 | 1014.6 |
| 20260505070503 | 76 | 0 | 0.0 | 0.0 | 0.00 | 0.18 | 0.01 | 73 | 1014.4 |
| 20260505070024 | 77 | 0 | 0.0 | 0.0 | 0.00 | 0.18 | 0.01 | 73 | 1014.5 |
| 20260505065503 | 76 | 0 | 0.0 | 0.0 | 0.00 | 0.18 | 0.01 | 73 | 1014.4 |
| 20260505065003 | 77 | 0 | 0.0 | 0.0 | 0.00 | 0.18 | 0.01 | 71 | 1014.1 |
| 20260505064503 | 78 | 0 | 0.0 | 0.0 | 0.00 | 0.18 | 0.01 | 70 | 1014.3 |
| 20260505064003 | 80 | 0 | 0.0 | 0.0 | 0.00 | 0.18 | 0.01 | 64 | 1014.3 |
| 20260505063525 | 80 | 0 | 0.0 | 0.0 | 0.00 | 0.18 | 0.01 | 64 | 1014.4 |
| 20260505063024 | 80 | 0 | 0.0 | 0.0 | 0.00 | 0.18 | 0.01 | 64 | 1014.2 |
| 20260505062524 | 80 | 0 | 0.0 | 0.0 | 0.00 | 0.18 | 0.01 | 64 | 1014.2 |
| 20260505062003 | 81 | 0 | 0.0 | 0.0 | 0.00 | 0.18 | 0.01 | 63 | 1014.2 |
| 20260505061503 | 81 | 0 | 0.0 | 0.0 | 0.00 | 0.18 | 0.01 | 63 | 1014.1 |
| 20260505061003 | 81 | 67 | 0.0 | 1.7 | 0.00 | 0.18 | 0.01 | 62 | 1014.1 |
| 20260505060503 | 80 | 67 | 0.0 | 1.7 | 0.00 | 0.18 | 0.01 | 62 | 1014.1 |
| 20260505060003 | 80 | 0 | 0.0 | 0.0 | 0.00 | 0.18 | 0.01 | 63 | 1013.9 |
| 20260505055503 | 80 | 112 | 0.0 | 1.7 | 0.00 | 0.18 | 0.01 | 64 | 1014.0 |
| 20260505055003 | 80 | 112 | 0.0 | 1.7 | 0.00 | 0.18 | 0.01 | 63 | 1014.1 |
| 20260505054503 | 79 | 112 | 0.0 | 1.7 | 0.00 | 0.18 | 0.01 | 64 | 1014.1 |
| 20260505054003 | 80 | 0 | 0.0 | 0.0 | 0.00 | 0.18 | 0.01 | 65 | 1013.9 |
| 20260505053504 | 80 | 0 | 0.0 | 0.0 | 0.00 | 0.18 | 0.01 | 65 | 1014.0 |
| 20260505053003 | 80 | 90 | 0.0 | 1.7 | 0.00 | 0.18 | 0.01 | 64 | 1013.8 |
| 20260505052503 | 82 | 90 | 0.0 | 1.7 | 0.00 | 0.18 | 0.01 | 64 | 1013.9 |
| 20260505052003 | 81 | 77 | 0.0 | 1.7 | 0.00 | 0.18 | 0.01 | 62 | 1013.7 |
| 20260505051524 | 81 | 80 | 0.0 | 1.7 | 0.00 | 0.18 | 0.01 | 62 | 1013.8 |
| 20260505051024 | 82 | 90 | 0.0 | 1.7 | 0.00 | 0.18 | 0.01 | 60 | 1013.8 |
| 20260505050503 | 82 | 90 | 0.0 | 1.7 | 0.00 | 0.18 | 0.01 | 63 | 1013.8 |
| 20260505041503 | 82 | 0 | 0.0 | 0.0 | 0.00 | 0.18 | 0.01 | 62 | 1014.0 |
| 20260505041003 | 83 | 0 | 0.0 | 0.0 | 0.00 | 0.18 | 0.01 | 64 | 1014.1 |
| 20260505040503 | 82 | 0 | 0.0 | 0.0 | 0.00 | 0.18 | 0.01 | 63 | 1013.8 |
| 20260505040003 | 82 | 0 | 0.0 | 0.0 | 0.00 | 0.18 | 0.01 | 62 | 1013.9 |
| 20260505035503 | 83 | 0 | 0.0 | 0.0 | 0.00 | 0.18 | 0.01 | 62 | 1014.1 |
| 20260505035003 | 82 | 0 | 0.0 | 0.0 | 0.00 | 0.18 | 0.01 | 63 | 1013.8 |
| 20260505034503 | 83 | 0 | 0.0 | 0.0 | 0.00 | 0.18 | 0.01 | 62 | 1014.0 |
| 20260505034003 | 84 | 0 | 0.0 | 0.0 | 0.00 | 0.18 | 0.01 | 60 | 1014.0 |
| 20260505033504 | 83 | 0 | 0.0 | 0.0 | 0.00 | 0.18 | 0.01 | 58 | 1013.9 |
| 20260505033003 | 85 | 0 | 0.0 | 0.0 | 0.00 | 0.18 | 0.01 | 56 | 1013.9 |
| 20260505032524 | 83 | 168 | 0.0 | 1.7 | 0.00 | 0.18 | 0.01 | 58 | 1014.0 |
| 20260505032003 | 83 | 168 | 0.0 | 1.7 | 0.00 | 0.18 | 0.01 | 59 | 1014.0 |
| 20260505031503 | 83 | 0 | 0.0 | 0.0 | 0.00 | 0.18 | 0.01 | 61 | 1014.1 |
| 20260505031003 | 82 | 135 | 0.0 | 1.7 | 0.00 | 0.18 | 0.01 | 59 | 1014.2 |
| 20260505030503 | 83 | 135 | 0.0 | 1.7 | 0.00 | 0.18 | 0.01 | 59 | 1014.4 |
| 20260505030024 | 84 | 0 | 0.0 | 0.0 | 0.00 | 0.18 | 0.01 | 63 | 1014.5 |
| 20260505025503 | 82 | 0 | 0.0 | 0.0 | 0.00 | 0.18 | 0.01 | 62 | 1014.5 |
| 20260505025024 | 82 | 0 | 0.0 | 0.0 | 0.00 | 0.18 | 0.01 | 64 | 1014.6 |
| 20260505024503 | 82 | 0 | 0.0 | 0.0 | 0.00 | 0.18 | 0.01 | 64 | 1014.8 |
| 20260505024003 | 81 | 0 | 0.0 | 0.0 | 0.00 | 0.18 | 0.01 | 66 | 1014.6 |
| 20260505023504 | 83 | 0 | 0.0 | 0.0 | 0.00 | 0.18 | 0.01 | 63 | 1014.8 |
| 20260505023003 | 82 | 0 | 0.0 | 0.0 | 0.00 | 0.18 | 0.01 | 67 | 1015.0 |
| 20260505022503 | 82 | 90 | 0.0 | 1.7 | 0.00 | 0.18 | 0.01 | 68 | 1015.0 |
| 20260505022003 | 83 | 90 | 0.0 | 1.7 | 0.00 | 0.18 | 0.01 | 69 | 1014.9 |
| 20260505021524 | 81 | 0 | 0.0 | 0.0 | 0.00 | 0.18 | 0.01 | 69 | 1015.0 |
| 20260505021003 | 82 | 0 | 0.0 | 0.0 | 0.00 | 0.18 | 0.01 | 67 | 1015.3 |
| 20260505020524 | 81 | 0 | 0.0 | 0.0 | 0.00 | 0.18 | 0.01 | 69 | 1015.3 |
| 20260505020003 | 80 | 0 | 0.0 | 0.0 | 0.00 | 0.18 | 0.01 | 69 | 1015.3 |
| 20260505015503 | 80 | 0 | 0.0 | 0.0 | 0.00 | 0.18 | 0.01 | 69 | 1015.4 |
| 20260505015003 | 80 | 0 | 0.0 | 0.0 | 0.00 | 0.18 | 0.01 | 71 | 1015.2 |
| 20260505014524 | 80 | 0 | 0.0 | 0.0 | 0.00 | 0.18 | 0.01 | 69 | 1015.5 |
| 20260505014003 | 82 | 0 | 0.0 | 0.0 | 0.00 | 0.18 | 0.01 | 72 | 1015.6 |